{"data":{"norad_id":50488,"epoch":"2026-05-25T03:15:14.987232Z","epoch_age_seconds":59724,"freshness":"FRESH","line1":"1 50488U 21132V   26145.13559013  .00000073  00000+0  17067-3 0  9992","line2":"2 50488  87.8914  25.6403 0001931  90.3102 269.8247 13.11414285212567","mean_motion":13.11414285,"eccentricity":0.0001931,"inclination_deg":87.8914,"raan_deg":25.6403,"arg_perigee_deg":90.3102,"mean_anomaly_deg":269.8247,"bstar":0.00017067,"rev_number":21256,"period_min":109.80511776261,"perigee_km":1216.226214896,"apogee_km":1219.1597244303,"semimajor_km":7595.8299696632,"source":"CELESTRAK","updated_at":"2026-05-25T13:38:22.532107Z"}}